| time (UTC) | temp F | wind direction | speed MPH | gust MPH | rain 1hr in | rain 24hr in | rain mn in | humidity % | barometer mb |
| 20260903183056 | 87 | 345 | 1.0 | 5.0 | 0.00 | 0.00 | 0.00 | 20 | 1002.7 |
| 20260903181554 | 87 | 209 | 3.0 | 9.0 | 0.00 | 0.00 | 0.00 | 22 | 1002.9 |
| 20260903180105 | 87 | 182 | 5.0 | 8.0 | 0.00 | 0.00 | 0.00 | 21 | 1003.1 |
| 20260903174609 | 87 | 1 | 3.0 | 5.0 | 0.00 | 0.00 | 0.00 | 22 | 1003.2 |
| 20260903173055 | 86 | 18 | 2.0 | 5.0 | 0.00 | 0.00 | 0.00 | 23 | 1003.4 |
| 20260903171551 | 85 | 284 | 4.0 | 7.0 | 0.00 | 0.00 | 0.00 | 23 | 1003.5 |
| 20260903170106 | 86 | 216 | 3.0 | 6.0 | 0.00 | 0.00 | 0.00 | 23 | 1003.4 |
| 20260903164552 | 84 | 313 | 0.0 | 4.0 | 0.00 | 0.00 | 0.00 | 24 | 1003.5 |
| 20260903163045 | 83 | 149 | 4.0 | 9.0 | 0.00 | 0.00 | 0.00 | 25 | 1003.6 |
| 20260903161544 | 83 | 138 | 1.0 | 7.0 | 0.00 | 0.00 | 0.00 | 26 | 1003.6 |
| 20260903160046 | 84 | 250 | 1.0 | 5.0 | 0.00 | 0.00 | 0.00 | 25 | 1003.7 |
| 20260903154540 | 81 | 53 | 3.0 | 9.0 | 0.00 | 0.00 | 0.00 | 26 | 1003.9 |
| 20260903153044 | 82 | 153 | 1.0 | 4.0 | 0.00 | 0.00 | 0.00 | 28 | 1003.9 |
| 20260903151544 | 80 | 281 | 0.0 | 3.0 | 0.00 | 0.00 | 0.00 | 28 | 1004.1 |
| 20260903150030 | 78 | 351 | 0.0 | 4.0 | 0.00 | 0.00 | 0.00 | 30 | 1004.2 |
| 20260903144628 | 77 | 327 | 1.0 | 3.0 | 0.00 | 0.00 | 0.00 | 31 | 1004.4 |
| 20260903143025 | 75 | 22 | 2.0 | 7.0 | 0.00 | 0.00 | 0.00 | 34 | 1004.2 |
| 20260903141523 | 75 | 87 | 4.0 | 8.0 | 0.00 | 0.00 | 0.00 | 35 | 1004.4 |
| 20260903140022 | 73 | 292 | 0.0 | 9.0 | 0.00 | 0.00 | 0.00 | 36 | 1004.3 |
| 20260903134520 | 70 | 88 | 2.0 | 7.0 | 0.00 | 0.00 | 0.00 | 38 | 1004.4 |
| 20260903133018 | 65 | 82 | 3.0 | 5.0 | 0.00 | 0.00 | 0.00 | 49 | 1004.2 |
| 20260903131517 | 64 | 244 | 0.0 | 1.0 | 0.00 | 0.00 | 0.00 | 51 | 1004.0 |
| 20260903130014 | 64 | 167 | 0.0 | 0.0 | 0.00 | 0.00 | 0.00 | 49 | 1004.1 |
| 20260903124512 | 63 | 49 | 0.0 | 4.0 | 0.00 | 0.00 | 0.00 | 52 | 1004.0 |
| 20260903123011 | 63 | 103 | 2.0 | 6.0 | 0.00 | 0.00 | 0.00 | 53 | 1003.9 |
| 20260903121507 | 64 | 351 | 0.0 | 1.0 | 0.00 | 0.00 | 0.00 | 43 | 1003.5 |
| 20260903120004 | 65 | 351 | 0.0 | 0.0 | 0.00 | 0.00 | 0.00 | 41 | 1003.3 |
| 20260903114502 | 66 | 351 | 0.0 | 0.0 | 0.00 | 0.00 | 0.00 | 39 | 1003.3 |
| 20260903113001 | 66 | 351 | 0.0 | 0.0 | 0.00 | 0.00 | 0.00 | 41 | 1003.2 |
| 20260903111625 | 67 | 351 | 0.0 | 0.0 | 0.00 | 0.00 | 0.00 | 39 | 1003.1 |
| 20260903110110 | 67 | 351 | 1.0 | 3.0 | 0.00 | 0.00 | 0.00 | 41 | 1003.1 |
| 20260903104622 | 69 | 351 | 0.0 | 2.0 | 0.00 | 0.00 | 0.00 | 37 | 1003.1 |
| 20260903103051 | 70 | 7 | 3.0 | 4.0 | 0.00 | 0.00 | 0.00 | 36 | 1003.2 |
| 20260903101551 | 72 | 351 | 1.0 | 6.0 | 0.00 | 0.00 | 0.00 | 33 | 1003.2 |
| 20260903100050 | 72 | 356 | 1.0 | 5.0 | 0.00 | 0.00 | 0.00 | 34 | 1003.2 |
| 20260903094558 | 72 | 82 | 3.0 | 5.0 | 0.00 | 0.00 | 0.00 | 33 | 1003.3 |
| 20260903093049 | 73 | 215 | 1.0 | 6.0 | 0.00 | 0.00 | 0.00 | 33 | 1003.1 |
| 20260903091547 | 71 | 223 | 1.0 | 6.0 | 0.00 | 0.00 | 0.00 | 35 | 1003.0 |
| 20260903090050 | 70 | 234 | 4.0 | 8.0 | 0.00 | 0.00 | 0.00 | 36 | 1003.1 |
| 20260903084544 | 71 | 301 | 0.0 | 3.0 | 0.00 | 0.00 | 0.00 | 37 | 1003.1 |
| 20260903083044 | 71 | 123 | 0.0 | 4.0 | 0.00 | 0.00 | 0.00 | 39 | 1003.2 |
| 20260903081543 | 71 | 161 | 1.0 | 5.0 | 0.00 | 0.00 | 0.00 | 37 | 1003.0 |
| 20260903080041 | 72 | 180 | 0.0 | 5.0 | 0.00 | 0.00 | 0.00 | 37 | 1002.9 |
| 20260903074540 | 76 | 234 | 2.0 | 5.0 | 0.00 | 0.00 | 0.00 | 30 | 1003.1 |
| 20260903073045 | 75 | 284 | 1.0 | 5.0 | 0.00 | 0.00 | 0.00 | 31 | 1003.0 |
| 20260903071537 | 75 | 305 | 4.0 | 8.0 | 0.00 | 0.00 | 0.00 | 30 | 1003.1 |
| 20260903070039 | 73 | 315 | 2.0 | 5.0 | 0.00 | 0.00 | 0.00 | 31 | 1003.2 |
| 20260903064532 | 73 | 333 | 2.0 | 6.0 | 0.00 | 0.00 | 0.00 | 31 | 1003.2 |
| 20260903063030 | 72 | 15 | 2.0 | 6.0 | 0.00 | 0.00 | 0.00 | 32 | 1003.3 |
| 20260903061537 | 72 | 30 | 1.0 | 4.0 | 0.00 | 0.00 | 0.00 | 32 | 1003.2 |
| 20260903060029 | 72 | 238 | 0.0 | 2.0 | 0.00 | 0.00 | 0.00 | 31 | 1002.9 |
| 20260903054524 | 74 | 238 | 0.0 | 2.0 | 0.00 | 0.00 | 0.00 | 28 | 1002.8 |
| 20260903053023 | 75 | 236 | 0.0 | 3.0 | 0.00 | 0.00 | 0.00 | 28 | 1002.7 |
| 20260903051523 | 74 | 196 | 0.0 | 3.0 | 0.00 | 0.00 | 0.00 | 27 | 1002.7 |
| 20260903050023 | 73 | 33 | 0.0 | 0.0 | 0.00 | 0.00 | 0.00 | 28 | 1002.6 |
| 20260903044522 | 73 | 33 | 0.0 | 0.0 | 0.00 | 0.00 | 0.00 | 28 | 1002.5 |
| 20260903043021 | 73 | 33 | 0.0 | 0.0 | 0.00 | 0.00 | 0.00 | 27 | 1002.4 |
| 20260903041526 | 73 | 35 | 0.0 | 1.0 | 0.00 | 0.00 | 0.00 | 28 | 1002.3 |
| 20260903040021 | 75 | 197 | 0.0 | 0.0 | 0.00 | 0.00 | 0.00 | 27 | 1002.3 |
| 20260903034521 | 76 | 197 | 0.0 | 1.0 | 0.00 | 0.00 | 0.00 | 26 | 1002.3 |
| 20260903033019 | 78 | 197 | 0.0 | 1.0 | 0.00 | 0.00 | 0.00 | 24 | 1002.1 |
| 20260903031523 | 78 | 187 | 1.0 | 4.0 | 0.00 | 0.00 | 0.00 | 25 | 1002.0 |
| 20260903030029 | 79 | 211 | 1.0 | 4.0 | 0.00 | 0.00 | 0.00 | 24 | 1001.7 |
| 20260903024518 | 80 | 219 | 0.0 | 3.0 | 0.00 | 0.00 | 0.00 | 26 | 1001.4 |
| 20260903023018 | 82 | 219 | 0.0 | 7.0 | 0.00 | 0.00 | 0.00 | 26 | 1001.2 |
| 20260903021517 | 83 | 238 | 1.0 | 6.0 | 0.00 | 0.00 | 0.00 | 25 | 1000.9 |
| 20260903020017 | 84 | 49 | 2.0 | 4.0 | 0.00 | 0.00 | 0.00 | 22 | 1000.8 |
| 20260903014516 | 85 | 50 | 5.0 | 7.0 | 0.00 | 0.00 | 0.00 | 21 | 1000.6 |
| 20260903013027 | 85 | 45 | 4.0 | 7.0 | 0.00 | 0.00 | 0.00 | 21 | 1000.6 |
| 20260903011516 | 86 | 41 | 4.0 | 11.0 | 0.00 | 0.00 | 0.00 | 20 | 1000.7 |
| 20260903010027 | 87 | 57 | 6.0 | 10.0 | 0.00 | 0.00 | 0.00 | 19 | 1000.8 |
| 20260903004513 | 88 | 44 | 3.0 | 9.0 | 0.00 | 0.00 | 0.00 | 19 | 1000.9 |
| 20260903003015 | 89 | 70 | 4.0 | 10.0 | 0.00 | 0.00 | 0.00 | 18 | 1000.7 |
| 20260903001513 | 90 | 58 | 5.0 | 10.0 | 0.00 | 0.00 | 0.00 | 17 | 1000.8 |
| 20260903000012 | 91 | 63 | 6.0 | 10.0 | 0.00 | 0.00 | 0.00 | 17 | 1000.8 |
| 20260902234519 | 91 | 72 | 4.0 | 15.0 | 0.00 | 0.00 | 0.00 | 17 | 1000.8 |
| 20260902233010 | 91 | 90 | 4.0 | 15.0 | 0.00 | 0.00 | 0.00 | 17 | 1000.9 |
| 20260902231508 | 91 | 20 | 6.0 | 13.0 | 0.00 | 0.00 | 0.00 | 17 | 1001.2 |
| 20260902230006 | 91 | 57 | 7.0 | 11.0 | 0.00 | 0.00 | 0.00 | 17 | 1001.4 |
| 20260902224505 | 91 | 36 | 4.0 | 14.0 | 0.00 | 0.00 | 0.00 | 17 | 1001.5 |
| 20260902223002 | 90 | 33 | 4.0 | 11.0 | 0.00 | 0.00 | 0.00 | 18 | 1001.7 |
| 20260902221501 | 90 | 70 | 1.0 | 9.0 | 0.00 | 0.00 | 0.00 | 18 | 1001.7 |
| 20260902214602 | 89 | 130 | 7.0 | 15.0 | 0.00 | 0.00 | 0.00 | 18 | 1002.1 |
| 20260902213056 | 91 | 149 | 3.0 | 7.0 | 0.00 | 0.00 | 0.00 | 18 | 1002.3 |
| 20260902211556 | 90 | 132 | 4.0 | 13.0 | 0.00 | 0.00 | 0.00 | 19 | 1002.4 |
| 20260902210052 | 89 | 138 | 1.0 | 12.0 | 0.00 | 0.00 | 0.00 | 19 | 1002.7 |
| 20260902204551 | 90 | 144 | 8.0 | 14.0 | 0.00 | 0.00 | 0.00 | 20 | 1003.1 |
| 20260902203048 | 90 | 186 | 7.0 | 13.0 | 0.00 | 0.00 | 0.00 | 20 | 1003.2 |
| 20260902201554 | 89 | 138 | 4.0 | 10.0 | 0.00 | 0.00 | 0.00 | 20 | 1003.5 |
| 20260902200044 | 88 | 145 | 7.0 | 13.0 | 0.00 | 0.00 | 0.00 | 21 | 1003.6 |
| 20260902194543 | 88 | 167 | 10.0 | 14.0 | 0.00 | 0.00 | 0.00 | 21 | 1003.8 |
| 20260902193045 | 89 | 163 | 7.0 | 13.0 | 0.00 | 0.00 | 0.00 | 21 | 1004.1 |
| 20260902191540 | 89 | 138 | 2.0 | 9.0 | 0.00 | 0.00 | 0.00 | 20 | 1004.3 |
| 20260902190038 | 88 | 198 | 7.0 | 16.0 | 0.00 | 0.00 | 0.00 | 21 | 1004.7 |
| 20260902184535 | 88 | 300 | 5.0 | 9.0 | 0.00 | 0.00 | 0.00 | 20 | 1004.8 |